Zurück zum Katalog

STARLINK-33759

AktivKommunikationVLEO
NORAD 64007·PAYLOAD·🇺🇸 United States

Gestartet May 14, 2025 von Cape Canaveral Space Force Station

Loading…

Nächste Überflüge (nächste 24 Stunden)

TLE

AktuellSource: CelesTrak SupGP

Epoche: Sep 15, 2026, 02:37 UTC

1 64007C 25101P   26258.10951389  .00016314  00000+0  59079-3 0  2580
2 64007  43.0037   7.9968 0001578 267.0671 217.6002 15.27576288    15

Verfolge STARLINK-33759 in Echtzeit mit AllMySat

Download on the App Store